Location: Home
(42.5358°N, 72.7383°W)
Time: 05:29:58
(UTC-05:00)

Courier 1B Rocket - Pass Details

Date: 01 December 2021
Orbit: 920 x 1202 km, 28.2° (Epoch: 25 January)

Event Time Altitude Azimuth Distance (km) Brightness Sun altitude
Rises 00:44:49 0° 236° (SW) 3,552 - -65.3°
Reaches altitude 10° 00:48:04 10° 220° (SW) 2,602 - -64.9°
Maximum altitude 00:52:32 21° 174° (S) 1,951 - -64.4°
Drops below altitude 10° 00:57:02 10° 128° (SE) 2,634 - -63.8°
Sets 01:00:21 0° 113° (ESE) 3,610 - -63.4°
